Fort Myers, FL

8:32 AM EST on February 13, 2016 (GMT -0500)
Page

Weather History for KFMY - February, 2013

Change the Weather History Date:

Thursday, February 7, 2013

  Actual Average Record
Temperature  
Mean Temperature 72 °F 66 °F  
Max Temperature 82 °F 76 °F 86 °F (1986)
Min Temperature 61 °F 55 °F 33 °F (1978)
Degree Days  
Heating Degree Days 0 2  
Month to date heating degree days 19 20  
Since 1 July heating degree days 91 221  
Cooling Degree Days 7 3  
Month to date cooling degree days 12 21  
Year to date cooling degree days 188 104  
Growing Degree Days 21 (Base 50)    
Moisture  
Dew Point 62 °F    
Average Humidity 74    
Maximum Humidity 100    
Minimum Humidity 45    
Precipitation  
Precipitation 0.00 in 0.06 in 1.50 in (1947)
Month to date precipitation T 0.48  
Year to date precipitation 0.62 2.42  
Sea Level Pressure  
Sea Level Pressure 30.02 in    
Wind  
Wind Speed 7 mph (South)    
Max Wind Speed 16 mph    
Max Gust Speed 22 mph    
Visibility 10 miles    
Events      
T = Trace of Precipitation, MM = Missing Value Source: NWS Daily Summary

Daily Weather History Graph

Daily Weather History Graph

Search for Another Location

Airport or City:

Trip Planner

Search our weather history database for the weather conditions in past years. The results will help you decide how hot, cold, wet, or windy it might be!

Date:

Astronomy

Feb. 07, 2013 Rise Set
Actual Time 7:08 AM EST 6:14 PM EST
Civil Twilight 6:44 AM EST 6:38 PM EST
Nautical Twilight 6:17 AM EST 7:06 PM EST
Astronomical Twilight 5:50 AM EST 7:33 PM EST
Moon 4:38 AM EST (2/7) 3:45 PM EST (2/7)
Length of Visible Light 11h 53m
Length of Day
11h 05m
Waning Crescent, 9% of the Moon is Illuminated
Feb 7
Waning Crescent
Feb 10
New
Feb 17
First Quarter
Feb 25
Full
Mar 4
Last Quarter

Hourly Weather History & Observations

Time (EST) Temp. Heat Index Dew Point Humidity Pressure Visibility Wind Dir Wind Speed Gust Speed Precip Events Conditions
12:53 AM 70.0 °F - 63.0 °F 78% 30.07 in 10.0 mi Calm Calm - N/A   Overcast
1:53 AM 69.1 °F - 63.0 °F 81% 30.07 in 10.0 mi SE 3.5 mph - N/A   Mostly Cloudy
2:53 AM 66.0 °F - 62.1 °F 87% 30.05 in 10.0 mi East 3.5 mph - N/A   Partly Cloudy
3:53 AM 64.0 °F - 62.1 °F 93% 30.04 in 9.0 mi Calm Calm - N/A   Clear
4:53 AM 63.0 °F - 61.0 °F 93% 30.04 in 8.0 mi Calm Calm - N/A   Clear
5:53 AM 62.1 °F - 60.1 °F 93% 30.04 in 8.0 mi ESE 4.6 mph - N/A   Clear
6:53 AM 61.0 °F - 60.1 °F 97% 30.06 in 6.0 mi Calm Calm - N/A   Clear
7:53 AM 63.0 °F - 61.0 °F 93% 30.08 in 7.0 mi Calm Calm - N/A   Clear
8:53 AM 68.0 °F - 63.0 °F 84% 30.07 in 10.0 mi SSE 5.8 mph - N/A   Clear
9:53 AM 73.0 °F - 63.0 °F 71% 30.07 in 10.0 mi SE 11.5 mph - N/A   Clear
10:53 AM 77.0 °F - 60.1 °F 56% 30.04 in 10.0 mi SSE 12.7 mph 20.7 mph N/A   Clear
11:53 AM 80.1 °F 80.7 °F 59.0 °F 48% 30.04 in 10.0 mi South 9.2 mph - N/A   Clear
12:53 PM 81.0 °F 81.6 °F 60.1 °F 49% 30.01 in 10.0 mi SSW 10.4 mph - N/A   Mostly Cloudy
1:53 PM 81.0 °F 81.3 °F 59.0 °F 47% 29.97 in 10.0 mi SW 10.4 mph - N/A   Clear
2:53 PM 81.0 °F 81.1 °F 57.9 °F 45% 29.97 in 10.0 mi SW 12.7 mph 19.6 mph N/A   Clear
3:53 PM 79.0 °F - 60.1 °F 52% 29.95 in 10.0 mi SSW 17.3 mph 21.9 mph N/A   Clear
4:53 PM 77.0 °F - 62.1 °F 60% 29.96 in 10.0 mi SSW 11.5 mph 19.6 mph N/A   Clear
5:53 PM 75.0 °F - 63.0 °F 66% 29.97 in 10.0 mi SSW 12.7 mph - N/A   Clear
6:53 PM 72.0 °F - 64.0 °F 76% 29.99 in 10.0 mi SSW 6.9 mph - N/A   Clear
7:53 PM 71.1 °F - 64.9 °F 81% 30.01 in 10.0 mi SSW 3.5 mph - N/A   Clear
8:53 PM 70.0 °F - 64.9 °F 84% 30.02 in 10.0 mi Calm Calm - N/A   Clear
9:53 PM 70.0 °F - 64.9 °F 84% 30.01 in 10.0 mi SSW 5.8 mph - N/A   Clear
10:53 PM 71.1 °F - 64.9 °F 81% 29.98 in 10.0 mi SSW 8.1 mph - N/A   Clear
11:53 PM 71.1 °F - 64.0 °F 78% 29.96 in 10.0 mi SW 11.5 mph - N/A   Partly Cloudy